Location: Krasnoyarskiy Pitomnik
(51.1333°N, 71.6167°E)
Time: 10:29:19
(UTC+00:00)

YAOGAN 1 - Pass Details

Date: 22 October 2021
Orbit: 618 x 620 km, 97.9° (Epoch: 06 December)

Event Time Altitude Azimuth Distance (km) Brightness Sun altitude
Rises 13:18:50 0° 148° (SSE) 2,888 5.7 -12.0°
Reaches altitude 10° 13:21:04 10° 142° (SE) 1,986 4.8 -12.3°
Maximum altitude 13:25:12 47° 69° (ENE) 828 2.8 -13.0°
Drops below altitude 10° 13:29:23 10° 356° (N) 2,001 5.2 -13.6°
Sets 13:31:38 0° 351° (N) 2,912 6.1 -14.0°
